OSSIPEE R NR EFFINGHAM: From 11/25/2019 00:00 to 12/11/2019 00:00

Date STAGE [FT] OBSERVED DAM ELEVATION FLOW [CFS] PRECIPITATION INCREMENT [IN] PRECIPITATION TOTAL [IN] AIR TEMPERATURE [DEGF]
12/09/2019 09:00 3.73 405.23 687.9 -- -- 34.9
12/09/2019 08:00 3.74 405.23 691.9 -- -- 33.0
12/09/2019 07:00 3.75 405.24 695.8 0.00 -- 32.4
12/09/2019 06:00 3.75 405.23 695.8 0.00 -- 32.9
12/09/2019 05:00 3.75 405.23 695.8 0.00 -- 34.0
12/09/2019 04:00 3.75 405.24 695.8 0.00 -- 32.6
12/09/2019 03:00 3.75 405.24 695.8 0.00 -- 32.4
12/09/2019 02:00 3.76 405.23 699.9 0.00 -- 32.7
12/09/2019 01:00 3.76 405.24 699.9 0.00 -- 32.2
12/09/2019 00:00 3.77 405.24 703.9 0.00 -- 31.5
12/08/2019 23:00 3.77 405.24 703.9 0.00 -- 31.1
12/08/2019 22:00 3.78 405.24 707.9 0.00 -- 30.3
12/08/2019 21:00 3.78 405.24 707.9 0.00 -- 30.4
12/08/2019 20:00 3.78 405.24 707.9 0.00 -- 30.5
12/08/2019 19:00 3.79 405.24 711.9 0.00 -- 30.8
12/08/2019 18:00 3.79 405.24 711.9 0.00 -- 31.3
12/08/2019 17:00 3.79 405.24 711.9 0.00 -- 31.7
12/08/2019 16:00 3.80 405.24 716.0 0.00 -- 31.5
12/08/2019 15:00 3.80 405.24 716.0 0.00 -- 32.8
12/08/2019 14:00 3.81 405.24 720.1 0.00 -- 33.5
12/08/2019 13:00 3.81 405.24 720.1 0.00 -- 31.2
12/08/2019 12:00 3.81 405.24 720.1 0.00 -- 29.6
12/08/2019 11:00 3.84 405.23 732.6 0.00 -- 25.7
12/08/2019 10:00 3.84 405.23 732.6 0.00 -- 21.8
12/08/2019 09:00 3.84 405.23 732.6 0.00 -- 13.1
12/08/2019 08:00 3.84 405.24 732.6 0.00 -- 6.2
12/08/2019 07:00 3.84 405.24 732.6 0.00 -- 4.3
12/08/2019 06:00 3.84 405.24 732.6 0.00 -- 3.7
12/08/2019 05:00 3.84 405.24 732.6 0.00 -- 3.6
12/08/2019 04:00 3.84 405.24 732.6 0.00 -- 3.9
12/08/2019 03:00 3.84 405.24 732.6 0.00 -- 4.7
12/08/2019 02:00 3.85 405.24 736.8 0.00 -- 6.0
12/08/2019 01:00 3.85 405.24 736.8 0.00 -- 6.5
12/08/2019 00:00 3.85 405.24 736.8 0.00 0.00 8.5
12/07/2019 23:00 3.86 405.24 741.0 0.00 -- 9.3
12/07/2019 22:00 3.86 405.24 741.0 0.00 -- 11.0
12/07/2019 21:00 3.87 405.24 745.3 0.00 -- 13.2
12/07/2019 20:00 3.87 405.24 745.3 0.00 -- 15.7
12/07/2019 19:00 3.88 405.24 749.5 0.00 -- 19.1
12/07/2019 18:00 3.88 405.24 749.5 0.00 -- 21.4
12/07/2019 17:00 3.89 405.24 753.7 0.00 -- 24.7
12/07/2019 16:00 3.89 405.24 753.7 0.00 -- 26.8
12/07/2019 15:00 3.89 405.24 753.7 0.00 -- 29.3
12/07/2019 14:00 3.90 405.24 758.0 0.00 -- 30.2
12/07/2019 13:00 3.90 405.24 758.0 0.00 -- 30.1
12/07/2019 12:00 3.90 405.24 758.0 0.00 -- 29.1
12/07/2019 11:00 3.90 405.24 758.0 0.00 -- 27.9
12/07/2019 10:00 3.90 405.23 758.0 0.00 -- 25.7
12/07/2019 09:00 3.91 405.24 762.1 0.00 -- 20.5
12/07/2019 08:00 3.91 405.24 762.1 0.00 -- 12.8
12/07/2019 07:00 3.91 405.24 762.1 0.00 -- 12.6
12/07/2019 06:00 3.91 405.24 762.1 0.00 -- 14.0
12/07/2019 05:00 3.92 405.24 766.3 0.00 -- 14.2
12/07/2019 04:00 3.92 405.24 766.3 0.00 -- 16.3
12/07/2019 03:00 3.92 405.24 766.3 0.00 -- 18.3
12/07/2019 02:00 3.93 405.24 770.5 0.00 -- 21.4
12/07/2019 01:00 3.93 405.24 770.5 0.00 -- 21.9
12/07/2019 00:00 3.93 405.23 770.5 0.00 0.00 23.0
12/06/2019 23:00 3.94 405.24 774.7 0.00 -- 22.7
12/06/2019 22:00 3.94 405.24 774.7 0.00 -- 25.5
12/06/2019 21:00 3.94 405.23 774.7 0.00 -- 27.7
12/06/2019 20:00 3.94 405.23 774.7 0.00 -- 27.7
12/06/2019 19:00 3.95 405.23 778.9 0.00 -- 27.7
12/06/2019 18:00 3.95 405.24 778.9 0.00 -- 28.0
12/06/2019 17:00 3.95 405.24 778.9 0.00 -- 28.3
12/06/2019 16:00 3.96 405.24 783.1 0.00 -- 28.5
12/06/2019 15:00 3.96 405.24 783.1 0.00 -- 30.3
12/06/2019 14:00 3.96 405.24 783.1 0.00 -- 31.4
12/06/2019 13:00 3.97 405.24 787.3 0.00 -- 31.4
12/06/2019 12:00 3.97 405.24 787.3 0.00 -- 31.3
12/06/2019 11:00 3.97 405.24 787.3 0.00 -- 31.4
12/06/2019 10:00 3.97 405.24 787.3 0.00 -- 29.3
12/06/2019 09:00 3.97 405.23 787.3 0.00 -- 24.5
12/06/2019 08:00 3.98 405.24 791.5 0.00 -- 19.4
12/06/2019 07:00 3.98 405.24 791.5 0.00 -- 18.6
12/06/2019 06:00 3.98 405.24 791.5 0.00 -- 20.2
12/06/2019 05:00 3.99 405.24 795.7 0.00 -- 22.1
12/06/2019 04:00 3.99 405.24 795.7 0.00 -- 23.3
12/06/2019 03:00 4.00 405.24 800.0 0.00 -- 25.8
12/06/2019 02:00 4.00 405.24 800.0 0.00 -- 24.7
12/06/2019 01:00 4.01 405.24 804.2 0.00 -- 26.7
12/06/2019 00:00 4.01 405.24 804.2 0.00 0.00 27.5
12/05/2019 23:00 4.01 405.24 804.2 0.00 -- 28.9
12/05/2019 22:00 4.01 405.24 804.2 0.00 -- 30.4
12/05/2019 21:00 4.02 405.23 808.3 0.00 -- 31.9
12/05/2019 20:00 4.02 405.23 808.3 0.00 -- 32.3
12/05/2019 19:00 4.02 405.23 808.3 0.00 -- 33.3
12/05/2019 18:00 4.02 405.23 808.3 0.00 -- 34.7
12/05/2019 17:00 4.02 405.24 808.3 0.00 -- 33.3
12/05/2019 16:00 4.02 405.23 808.3 0.00 -- 35.1
12/05/2019 15:00 4.03 405.23 812.5 0.00 -- 38.8
12/05/2019 14:00 4.03 405.23 812.5 0.00 -- 38.6
12/05/2019 13:00 4.03 405.23 812.5 0.00 -- 40.7
12/05/2019 12:00 4.03 405.23 812.5 0.00 -- 40.1
12/05/2019 11:00 4.03 405.23 812.5 0.00 -- 37.6
12/05/2019 10:00 4.04 405.23 816.7 0.00 -- 32.6
12/05/2019 09:00 4.04 405.23 816.7 0.00 -- 28.2
12/05/2019 08:00 4.04 405.23 816.7 0.00 -- 22.3
12/05/2019 07:00 4.04 405.23 816.7 0.00 -- 21.1
12/05/2019 06:00 4.04 405.23 816.7 0.00 -- 21.2
12/05/2019 05:00 4.05 405.24 820.9 0.00 -- 20.6
12/05/2019 04:00 4.05 405.23 820.9 0.00 -- 20.6
12/05/2019 03:00 4.05 405.24 820.9 0.00 -- 22.2
12/05/2019 02:00 4.05 405.24 820.9 0.00 -- 23.7
12/05/2019 01:00 4.06 405.23 825.1 0.00 -- 24.9
12/05/2019 00:00 4.06 405.24 825.1 0.00 0.00 24.8
12/04/2019 23:00 4.06 405.23 825.1 0.00 -- 25.2
12/04/2019 22:00 4.06 405.23 825.1 0.00 -- 25.7
12/04/2019 21:00 4.07 405.23 829.3 0.00 -- 27.5
12/04/2019 20:00 4.07 405.23 829.3 0.00 -- 28.2
12/04/2019 19:00 4.07 405.23 829.3 0.00 -- 27.9
12/04/2019 18:00 4.08 405.23 833.5 0.00 -- 29.1
12/04/2019 17:00 4.08 405.23 833.5 0.00 -- 31.6
12/04/2019 16:00 4.08 405.23 833.5 0.00 -- 33.3
12/04/2019 15:00 4.08 405.23 833.5 0.00 -- 33.7
12/04/2019 14:00 4.09 405.23 837.8 0.00 -- 36.1
12/04/2019 13:00 4.09 405.23 837.8 0.00 -- 33.6
12/04/2019 12:00 4.09 405.23 837.8 0.00 -- 32.9
12/04/2019 11:00 4.09 405.23 837.8 0.00 -- 31.9
12/04/2019 10:00 4.09 405.23 837.8 0.00 -- 29.1
12/04/2019 09:00 4.10 405.17 842.0 0.00 -- 25.0
12/04/2019 08:00 4.10 405.23 842.0 0.00 -- 20.5
12/04/2019 07:00 4.10 405.23 842.0 0.00 -- 19.4
12/04/2019 06:00 4.10 405.24 842.0 0.00 -- 19.7
12/04/2019 05:00 4.10 405.24 842.0 0.00 -- 18.7
12/04/2019 04:00 4.11 405.24 846.3 0.00 -- 18.4
12/04/2019 03:00 4.11 405.23 846.3 0.00 -- 20.9
12/04/2019 02:00 4.11 405.23 846.3 0.00 -- 20.6
12/04/2019 01:00 4.11 405.23 846.3 0.00 -- 21.6
12/04/2019 00:00 4.12 405.23 850.5 0.00 0.00 22.1
12/03/2019 23:00 4.12 405.23 850.5 0.00 -- 22.9
12/03/2019 22:00 4.12 405.23 850.5 0.00 -- 24.8
12/03/2019 21:00 4.13 405.23 854.8 0.00 -- 26.9
12/03/2019 20:00 4.13 405.23 854.8 0.00 -- 28.5
12/03/2019 19:00 4.13 405.23 854.8 0.00 -- 29.1
12/03/2019 18:00 4.13 405.23 854.8 0.00 -- 28.9
12/03/2019 17:00 4.13 405.23 854.8 0.00 -- 27.6
12/03/2019 16:00 4.14 405.23 859.1 0.00 -- 27.9
12/03/2019 15:00 4.14 405.23 859.1 0.00 -- 28.7
12/03/2019 14:00 4.14 405.23 859.1 0.00 -- 30.5
12/03/2019 13:00 4.14 405.23 859.1 0.00 -- 31.6
12/03/2019 12:00 4.14 405.23 859.1 0.00 -- 31.8
12/03/2019 11:00 4.14 405.24 859.1 0.00 -- 31.2
12/03/2019 10:00 4.14 405.23 859.1 0.00 -- 30.7
12/03/2019 09:00 4.13 405.23 854.8 0.00 -- 30.4
12/03/2019 08:00 4.13 405.23 854.8 0.00 -- 30.9
12/03/2019 07:00 4.14 405.23 859.1 0.00 -- 30.5
12/03/2019 06:00 4.14 405.23 859.1 0.00 -- 29.2
12/03/2019 05:00 4.14 405.23 859.1 0.00 -- 29.1
12/03/2019 04:00 4.14 405.23 859.1 0.00 -- 28.7
12/03/2019 03:00 4.15 405.23 863.4 0.00 -- 27.6
12/03/2019 02:00 4.14 405.23 859.1 0.00 -- 28.5
12/03/2019 01:00 4.15 405.23 863.4 0.00 -- 26.9
12/03/2019 00:00 4.15 405.23 863.4 0.00 0.00 29.9
12/02/2019 23:00 4.15 405.23 863.4 0.00 -- 31.5
12/02/2019 22:00 4.15 405.23 863.4 0.00 -- 32.0
12/02/2019 21:00 4.16 405.23 867.7 0.00 -- 31.7
12/02/2019 20:00 4.16 405.23 867.7 0.00 -- 32.0
12/02/2019 19:00 4.16 405.23 867.7 0.00 -- 31.9
12/02/2019 18:00 4.16 405.23 867.7 0.00 -- 31.7
12/02/2019 17:00 4.17 405.23 872.0 0.00 -- 31.7
12/02/2019 16:00 4.17 405.24 872.0 0.00 -- 31.9
12/02/2019 15:00 4.17 405.23 872.0 0.00 -- 32.3
12/02/2019 14:00 4.17 405.23 872.0 0.00 -- 32.8
12/02/2019 13:00 4.17 405.24 872.0 0.00 -- 32.3
12/02/2019 12:00 4.18 405.23 876.3 0.00 -- 31.4
12/02/2019 11:00 4.18 405.23 876.3 0.00 -- 29.8
12/02/2019 10:00 4.18 405.23 876.3 0.00 -- 28.8
12/02/2019 09:00 4.18 405.23 876.3 0.00 -- 27.6
12/02/2019 08:00 4.19 405.23 880.7 0.00 -- 27.0
12/02/2019 07:00 4.19 405.23 880.7 0.00 -- 27.2
12/02/2019 06:00 4.19 405.23 880.7 0.00 -- 26.7
12/02/2019 05:00 4.19 405.23 880.7 0.00 -- 25.8
12/02/2019 04:00 4.19 405.23 880.7 0.00 -- 25.4
12/02/2019 03:00 4.19 405.23 880.7 0.00 -- 24.7
12/02/2019 02:00 4.20 405.24 885.0 0.00 -- 24.1
12/02/2019 01:00 4.20 405.23 885.0 0.00 -- 23.9
12/02/2019 00:00 4.19 405.23 880.7 0.00 0.00 25.0
12/01/2019 23:00 4.20 405.23 885.0 0.00 -- 25.3
12/01/2019 22:00 4.20 405.23 885.0 0.00 -- 25.1
12/01/2019 21:00 4.20 405.23 885.0 0.00 -- 26.3
12/01/2019 20:00 4.20 405.23 885.0 0.00 -- 27.5
12/01/2019 19:00 4.20 405.23 885.0 0.00 -- 28.7
12/01/2019 18:00 4.20 405.23 885.0 0.00 -- 29.9
12/01/2019 17:00 4.20 405.23 885.0 0.00 -- 31.1
12/01/2019 16:00 4.20 405.23 885.0 0.00 -- 31.3
12/01/2019 15:00 4.20 405.20 885.0 0.00 -- 32.0
12/01/2019 14:00 4.21 405.58 889.4 0.00 -- 31.9
12/01/2019 13:00 4.21 405.71 889.4 0.00 -- 31.9
12/01/2019 12:00 4.21 405.71 889.2 0.00 -- 31.7
12/01/2019 11:00 4.21 405.63 889.0 0.00 -- 31.4
12/01/2019 10:00 4.21 405.55 888.9 0.00 -- 31.1
12/01/2019 09:00 4.21 405.53 888.7 0.00 -- 30.8
12/01/2019 08:00 4.21 405.50 888.6 0.00 -- 30.5
12/01/2019 07:00 4.21 405.48 888.4 0.00 -- 30.2
12/01/2019 06:00 4.21 405.47 888.3 0.00 -- 29.9
12/01/2019 05:00 4.21 405.47 888.1 0.00 -- 29.6
12/01/2019 04:00 4.21 405.56 888.0 0.00 -- 29.3
12/01/2019 03:00 4.21 405.56 887.8 0.00 -- 29.0
12/01/2019 02:00 4.21 405.66 887.6 0.00 -- 28.8
12/01/2019 01:00 4.21 405.64 887.5 0.00 -- 28.5
12/01/2019 00:00 4.21 405.64 887.3 0.00 0.00 28.2
11/30/2019 23:00 4.21 405.60 887.2 0.00 -- 27.9
11/30/2019 22:00 4.20 405.61 887.0 0.00 -- 27.6
11/30/2019 21:00 4.20 405.23 886.9 0.00 -- 27.3
11/30/2019 20:00 4.20 405.23 886.7 0.00 -- 27.0
11/30/2019 19:00 4.20 405.22 886.6 0.00 -- 26.7
11/30/2019 18:00 4.20 405.23 886.4 0.00 -- 26.4
11/30/2019 17:00 4.20 405.24 886.2 0.00 -- 26.1
11/30/2019 16:00 4.20 405.22 886.1 0.00 -- 25.8
11/30/2019 15:00 4.20 405.23 885.9 0.00 -- 25.6
11/30/2019 14:00 4.20 405.23 885.8 0.00 -- 25.3
11/30/2019 13:00 4.20 405.22 885.6 0.00 -- 25.0
11/30/2019 12:00 4.20 405.22 885.5 0.00 -- 24.7
11/30/2019 11:00 4.20 405.23 885.3 0.00 -- 24.4
11/30/2019 10:00 4.20 405.83 885.2 0.00 -- 24.1
11/30/2019 09:00 4.20 405.99 885.0 0.00 -- 23.8
11/30/2019 08:00 4.20 405.77 885.0 0.00 -- 20.6
11/30/2019 07:00 4.20 405.91 885.0 0.00 -- 21.9
11/30/2019 06:00 4.20 405.90 885.0 0.00 -- 23.4
11/30/2019 05:00 4.19 405.88 880.7 0.00 -- 23.7
11/30/2019 04:00 4.19 405.85 880.7 0.00 -- 23.5
11/30/2019 03:00 4.19 405.99 880.7 0.00 -- 24.4
11/30/2019 02:00 4.18 405.89 876.3 0.00 -- 24.9
11/30/2019 01:00 4.18 405.85 876.3 0.00 -- 24.7
11/30/2019 00:00 4.18 405.87 876.3 0.00 0.00 25.3
11/29/2019 23:00 4.18 405.55 876.3 0.00 -- 25.4
11/29/2019 22:00 4.18 405.21 876.3 0.00 -- 26.1
11/29/2019 21:00 4.17 405.22 872.0 0.00 -- 25.5
11/29/2019 20:00 4.16 405.23 867.7 0.00 -- 26.4
11/29/2019 19:00 4.16 405.23 867.7 0.00 -- 27.1
11/29/2019 18:00 4.16 405.23 867.7 0.00 -- 28.7
11/29/2019 17:00 4.15 405.24 863.4 0.00 -- 30.2
11/29/2019 16:00 4.15 405.23 863.4 0.00 -- 33.0
11/29/2019 15:00 4.14 405.23 859.1 0.00 -- 36.5
11/29/2019 14:00 4.14 405.23 859.1 0.00 -- 37.9
11/29/2019 13:00 4.13 405.23 854.8 0.00 -- 37.6
11/29/2019 12:00 4.13 405.23 854.8 0.00 -- 37.6
11/29/2019 11:00 4.12 405.24 850.5 0.00 -- 38.6
11/29/2019 10:00 4.12 405.24 850.5 0.00 -- 38.2
11/29/2019 09:00 4.11 405.24 846.3 0.00 -- 36.2
11/29/2019 08:00 4.10 405.24 842.0 0.00 -- 31.2
11/29/2019 07:00 4.10 405.24 842.0 0.00 -- 29.9
11/29/2019 06:00 4.09 405.24 837.8 0.00 -- 30.5
11/29/2019 05:00 4.09 405.24 837.8 0.00 -- 30.7
11/29/2019 04:00 4.08 405.24 833.5 0.00 -- 31.1
11/29/2019 03:00 4.07 405.24 829.3 0.00 -- 31.7
11/29/2019 02:00 4.07 405.24 829.3 0.00 -- 31.9
11/29/2019 01:00 4.06 405.24 825.1 0.00 -- 32.1
11/29/2019 00:00 4.06 405.24 825.1 0.00 0.00 32.8
11/28/2019 23:00 4.05 405.24 820.9 0.00 -- 32.8
11/28/2019 22:00 4.05 405.24 820.9 0.00 -- 32.5
11/28/2019 21:00 4.03 405.24 812.5 0.00 -- 32.2
11/28/2019 20:00 4.03 405.24 812.5 0.00 -- 32.5
11/28/2019 19:00 4.02 405.24 808.3 0.00 -- 32.5
11/28/2019 18:00 4.02 405.24 808.3 0.00 -- 33.2
11/28/2019 17:00 4.01 405.24 804.2 0.00 -- 34.8
11/28/2019 16:00 4.01 405.24 804.2 0.00 -- 37.0
11/28/2019 15:00 4.00 405.24 800.0 0.00 -- 39.8
11/28/2019 14:00 4.00 405.24 800.0 0.01 -- 41.0
11/28/2019 13:00 3.99 405.24 795.7 0.00 -- 38.3
11/28/2019 12:00 3.99 405.23 795.7 0.00 -- 38.3
11/28/2019 11:00 3.98 405.23 791.5 0.00 -- 38.3
11/28/2019 10:00 3.97 405.23 787.3 0.00 -- 38.6
11/28/2019 09:00 3.97 405.23 787.3 0.00 -- 37.5
11/28/2019 08:00 3.96 405.23 783.1 0.01 -- 36.6
11/28/2019 07:00 3.96 405.23 783.1 0.01 -- 36.1
11/28/2019 06:00 3.95 405.23 778.9 0.02 -- 36.0
11/28/2019 05:00 3.95 405.23 778.9 0.02 -- 36.3
11/28/2019 04:00 3.94 405.23 774.7 0.01 -- 36.4
11/28/2019 03:00 3.94 405.23 774.7 0.01 -- 36.3
11/28/2019 02:00 3.94 405.23 774.7 0.00 -- 36.7
11/28/2019 01:00 3.94 405.23 774.7 0.00 -- 37.0
11/28/2019 00:00 3.93 405.23 770.5 0.01 0.09 36.7
11/27/2019 23:00 3.93 405.23 770.5 0.00 -- 36.8
11/27/2019 22:00 3.92 405.23 766.3 0.01 -- 36.8
11/27/2019 21:00 3.92 405.23 766.3 0.05 -- 37.2
11/27/2019 20:00 3.92 405.24 766.3 0.06 -- 37.9
11/27/2019 19:00 3.90 405.23 758.0 0.10 -- 40.0
11/27/2019 18:00 3.90 405.24 758.0 0.15 -- 41.4
11/27/2019 17:00 3.89 405.24 753.7 0.03 -- 42.1
11/27/2019 16:00 3.89 405.24 753.7 0.00 -- 42.5
11/27/2019 15:00 3.88 405.24 749.5 0.00 -- 43.1
11/27/2019 14:00 3.88 405.24 749.5 0.00 -- 41.9
11/27/2019 13:00 3.88 405.23 749.5 0.00 -- 40.1
11/27/2019 12:00 3.88 405.23 749.5 0.00 -- 37.5
11/27/2019 11:00 3.87 405.23 745.3 0.00 -- 34.4
11/27/2019 10:00 3.86 405.23 741.0 0.00 -- 33.4
11/27/2019 09:00 3.86 405.23 741.0 0.00 -- 31.4
11/27/2019 08:00 3.85 405.23 736.8 0.00 -- 29.2
11/27/2019 07:00 3.85 405.23 736.8 0.00 -- 26.8
11/27/2019 06:00 3.84 405.24 732.6 0.00 -- 26.5
11/27/2019 05:00 3.84 405.24 732.6 0.00 -- 27.4
11/27/2019 04:00 3.84 405.23 732.6 0.00 -- 27.8
11/27/2019 03:00 3.83 405.23 728.5 0.00 -- 28.2
11/27/2019 02:00 3.83 405.24 728.5 0.00 -- 29.3
11/27/2019 01:00 3.81 405.24 720.1 0.00 -- 29.7
11/27/2019 00:00 3.81 405.24 720.1 0.00 0.41 30.4
11/26/2019 23:00 3.80 405.23 716.0 0.00 -- 31.0
11/26/2019 22:00 3.79 405.23 711.9 0.00 -- 32.4
11/26/2019 21:00 3.79 405.24 711.9 0.00 -- 32.4
11/26/2019 20:00 3.78 405.24 707.9 0.00 -- 34.7
11/26/2019 19:00 3.77 405.24 703.9 0.00 -- 36.3
11/26/2019 18:00 3.76 405.24 699.9 0.00 -- 39.3
11/26/2019 17:00 3.76 405.24 699.9 0.00 -- 45.3
11/26/2019 16:00 3.75 405.24 695.8 0.00 -- 51.5
11/26/2019 15:00 3.74 405.24 691.9 0.00 -- 51.2
11/26/2019 14:00 3.73 405.24 687.9 0.00 -- 49.7
11/26/2019 13:00 3.72 405.23 683.9 0.00 -- 45.4
11/26/2019 12:00 3.71 405.23 679.9 0.00 -- 42.1
11/26/2019 11:00 3.70 405.23 676.0 0.00 -- 38.9
11/26/2019 10:00 3.69 405.23 672.1 0.00 -- 31.3
11/26/2019 09:00 3.68 405.24 668.3 0.00 -- 27.8
11/26/2019 08:00 3.67 405.23 664.5 0.00 -- 26.2
11/26/2019 07:00 3.66 405.24 660.7 0.00 -- 26.3
11/26/2019 06:00 3.65 405.24 656.9 0.00 -- 26.2
11/26/2019 05:00 3.64 405.24 653.1 0.00 -- 26.6
11/26/2019 04:00 3.63 405.24 649.3 0.00 -- 27.4
11/26/2019 03:00 3.62 405.24 645.5 0.00 -- 27.7
11/26/2019 02:00 3.60 405.24 638.0 0.00 -- 27.8
11/26/2019 01:00 3.59 405.24 634.1 0.00 -- 28.3
11/26/2019 00:00 3.58 405.24 630.3 0.00 0.00 28.9
11/25/2019 23:00 3.57 405.24 626.5 0.00 -- 28.9
11/25/2019 22:00 3.55 405.24 618.8 0.00 -- 29.8
11/25/2019 21:00 3.54 405.24 615.1 0.00 -- 30.2
11/25/2019 20:00 3.53 405.24 611.3 0.00 -- 30.4
11/25/2019 19:00 3.53 405.24 611.3 0.00 -- 32.6
11/25/2019 18:00 3.52 405.24 607.5 0.00 -- 35.7
11/25/2019 17:00 3.51 405.24 603.7 0.00 -- 39.5
11/25/2019 16:00 3.50 405.24 600.0 0.00 -- 46.1
11/25/2019 15:00 3.50 405.24 600.0 0.00 -- 47.0
11/25/2019 14:00 3.49 405.24 596.3 0.00 -- 47.1
11/25/2019 13:00 3.48 405.24 592.7 0.00 -- 44.6
11/25/2019 12:00 3.48 405.24 592.7 0.00 -- 44.3
11/25/2019 11:00 3.47 405.24 589.1 0.02 -- 46.3
11/25/2019 10:00 -- -- -- -- -- 44.1
11/25/2019 09:00 -- -- -- -- -- 39.4
11/25/2019 08:00 -- -- -- -- -- 35.9
11/25/2019 07:00 -- -- -- -- -- 34.3
11/25/2019 06:00 -- -- -- -- -- 34.2
11/25/2019 05:00 -- -- -- -- -- 33.8
11/25/2019 04:00 -- -- -- -- -- 35.3
11/25/2019 03:00 -- -- -- -- -- 36.5
11/25/2019 02:00 -- -- -- -- -- 35.6
11/25/2019 01:00 -- -- -- -- -- 36.1
11/25/2019 00:00 -- -- -- -- 0.06 34.6